[[{"header":{"parameterUnit":"m.s-1","parameterCategory":1,"la1":30.2991,"la2":30.254,"lo1":-89.0895,"lo2":-89.0444,"dy":0.0017,"dx":0.0017,"nx":28,"ny":28,"refTime":"2024-07-18T03:00:00:Z","depth":0,"parameterNumber":2,"parameterNumberName":"U-component_of_WINDS"},"data":[0,0,0,0,0,0,0,0,0,0,0,0,0,0,0,0,0,0,0,0,0,0,0,0,0,0,0,0,0,0,0,0,0,0,0,0,0,0,0,0,0,0,0,0,0,0,0,0,0,0,0,0,0,0,0,0,0,0,-0.6604,-0.6602,0,-0.6372,-0.6369,-0.6367,-0.6253,-0.6253,-0.6253,-0.6253,-0.5998,-0.5992,-0.5985,0,0,0,0,0,0,0,0,0,0,0,0,0,-0.6932,-0.6927,-0.6604,-0.6602,-0.6599,-0.6372,-0.6369,-0.6366,-0.6253,-0.6253,-0.6253,-0.6253,-0.6,-0.5992,-0.5984,0,0,0,0,0,0,0,0,0,0,0,0,0,-0.6754,-0.6925,-0.6605,-0.6515,-0.6505,-0.6373,-0.6369,-0.6365,-0.6253,-0.6253,-0.6253,-0.6253,-0.6003,-0.5993,-0.5983,-0.5918,0,0,-0.5952,-0.5947,0,0,0,0,0,0,0,0,-0.6764,-0.6742,-0.6531,-0.6521,-0.6509,-0.6342,-0.6391,-0.6214,-0.6253,-0.6348,-0.6253,-0.6253,-0.6111,-0.6092,-0.6048,-0.5906,-0.5895,-0.5951,-0.5945,-0.594,-0.5937,0,0,0,0,0,0,0,-0.6777,-0.6751,-0.6512,-0.6528,-0.6515,-0.6481,-0.6455,-0.6357,-0.6231,-0.634,-0.6331,-0.6306,-0.6105,-0.6058,-0.6041,-0.5891,-0.5951,-0.5942,-0.5936,-0.5932,-0.5678,-0.5678,0,0,0,0,0,0,-0.6806,-0.6762,-0.6519,-0.6505,-0.664,-0.6475,-0.6447,-0.6395,-0.6232,-0.6208,-0.6306,-0.6301,-0.6075,-0.6053,-0.6032,-0.5943,-0.594,-0.5931,-0.5925,-0.5679,-0.5678,-0.5678,0,0,0,0,0,0,-0.6813,-0.6785,-0.6529,-0.6631,-0.6596,-0.6469,-0.6412,-0.639,-0.6344,-0.6207,-0.6182,-0.6282,-0.6075,-0.6046,-0.5947,-0.5932,-0.5926,-0.5917,-0.568,-0.5679,-0.5678,-0.5766,0,0,0,0,0,0,-0.6823,-0.6789,-0.6767,-0.6632,-0.6591,-0.6454,-0.6411,-0.6386,-0.6328,-0.632,-0.6178,-0.6154,-0.6073,-0.5963,-0.5937,-0.5918,-0.5909,-0.568,-0.5679,-0.5678,-0.5764,-0.5768,-0.5772,0,0,0,0,0,-0.6835,-0.6798,-0.6767,-0.6738,-0.6562,-0.6454,-0.643,-0.6341,-0.6328,-0.6302,-0.6213,-0.6159,-0.5938,-0.5954,-0.5923,-0.5901,-0.5681,-0.568,-0.5678,-0.5762,-0.5767,-0.5772,0,0,0,0,0,0,-0.6931,-0.6779,-0.6742,-0.6662,-0.6572,-0.6435,-0.6401,-0.635,-0.6258,-0.6254,-0.6142,-0.6111,-0.6021,-0.595,-0.5971,-0.5827,-0.5804,-0.5796,-0.5878,-0.5882,-0.5886,-0.5904,-0.59,0,0,0,0,0,-0.6944,-0.6874,-0.6742,-0.6683,-0.664,-0.6529,-0.6478,-0.6417,-0.6318,-0.6278,-0.6182,-0.6082,-0.599,-0.5931,-0.5839,-0.5752,-0.5717,-0.5721,-0.5725,-0.5729,-0.5724,-0.5669,-0.5669,-0.5674,-0.5674,-0.5674,0,0,-0.6967,-0.6875,-0.6837,-0.67,-0.6624,-0.6548,-0.6497,-0.642,-0.6361,-0.6264,-0.6167,-0.6092,-0.5972,-0.588,-0.5833,-0.5818,-0.5715,-0.5728,-0.5732,-0.5724,-0.5668,-0.5668,-0.5667,-0.5673,-0.5673,-0.5673,0,0,-0.6972,-0.6897,-0.684,-0.6764,-0.665,-0.6575,-0.6561,-0.6431,-0.638,-0.6281,-0.6205,-0.613,-0.5974,-0.5892,-0.583,-0.58,-0.5745,-0.5772,-0.5793,-0.5741,-0.5741,-0.574,-0.5727,-0.5724,-0.5767,-0.5767,-0.5767,0,-0.7015,-0.6905,-0.6815,-0.6742,-0.6682,-0.6594,-0.6531,-0.646,-0.632,-0.6277,-0.6263,-0.6065,-0.5978,-0.5863,-0.5856,-0.5808,-0.5785,-0.5788,-0.5749,-0.5747,-0.5745,-0.5732,-0.5727,-0.5771,-0.5771,-0.577,-0.577,0,-0.6961,-0.6885,-0.685,-0.6723,-0.6658,-0.659,-0.6485,-0.6428,-0.6372,-0.6297,-0.6194,-0.6087,-0.597,-0.5938,-0.588,-0.5813,-0.5806,-0.5772,-0.5746,-0.575,-0.5736,-0.573,-0.5777,-0.5775,-0.5774,-0.5773,0,0,-0.7024,-0.6846,-0.6835,-0.6774,-0.664,-0.6576,-0.6501,-0.6392,-0.6345,-0.6249,-0.6181,-0.605,-0.6017,-0.5946,-0.5877,-0.5832,-0.5812,-0.5802,-0.5797,-0.5807,-0.5727,-0.5755,-0.5751,-0.5774,-0.5773,-0.5772,-0.5737,0,-0.701,-0.688,-0.6795,-0.6695,-0.6621,-0.6534,-0.6468,-0.6375,-0.6301,-0.6222,-0.6137,-0.6047,-0.6011,-0.5967,-0.5918,-0.5826,-0.5795,-0.5826,-0.5705,-0.5702,-0.5739,-0.5744,-0.5773,-0.5746,-0.5731,-0.573,-0.5729,0,-0.6978,-0.689,-0.6785,-0.6657,-0.6622,-0.6566,-0.6457,-0.6384,-0.6274,-0.6223,-0.6144,-0.6074,-0.5984,-0.5966,-0.5838,-0.5862,-0.5806,-0.5752,-0.5748,-0.5734,-0.5717,-0.5728,-0.5735,-0.5731,-0.5719,-0.572,-0.5721,0,-0.7034,-0.6887,-0.6805,-0.6756,-0.6604,-0.6566,-0.65,-0.6391,-0.6329,-0.6231,-0.6189,-0.608,-0.6021,-0.5935,-0.5835,-0.5831,-0.5716,-0.569,-0.5667,-0.567,-0.5648,-0.5651,-0.5646,-0.5612,-0.5612,-0.5612,-0.5613,0,-0.7028,-0.6967,-0.6828,-0.6778,-0.6704,-0.6603,-0.6531,-0.6456,-0.6359,-0.6288,-0.6203,-0.6136,-0.6009,-0.5925,-0.5845,-0.575,-0.5723,-0.5675,-0.5655,-0.5683,-0.569,-0.5646,-0.5645,-0.5611,-0.5611,-0.5612,-0.5612,0,-0.708,-0.6985,-0.6889,-0.6753,-0.6717,-0.6669,-0.6549,-0.6493,-0.6414,-0.6325,-0.6297,-0.6171,-0.6067,-0.5959,-0.5816,-0.5762,-0.567,-0.5641,-0.571,-0.5698,-0.5682,-0.5685,-0.5648,-0.5637,-0.5612,-0.5613,-0.5613,0,-0.7084,-0.7035,-0.6894,-0.6843,-0.6781,-0.6698,-0.6636,-0.6532,-0.6469,-0.6338,-0.6297,-0.6188,-0.6096,-0.5932,-0.5823,-0.5713,-0.568,-0.5675,-0.5663,-0.5692,-0.5679,-0.5684,-0.5677,-0.568,-0.5681,-0.5681,-0.5682,0,-0.71,-0.7054,-0.6971,-0.687,-0.6799,-0.6713,-0.6623,-0.6584,-0.646,-0.6393,-0.6289,-0.6217,-0.6073,-0.5964,-0.584,-0.5764,-0.57,-0.5686,-0.5675,-0.5704,-0.5746,-0.5722,-0.5721,-0.5688,-0.5687,-0.5687,-0.5687,-0.5686,-0.7126,-0.7078,-0.6972,-0.688,-0.6802,-0.6719,-0.666,-0.6574,-0.6487,-0.6366,-0.6307,-0.6201,-0.6086,-0.5914,-0.5839,-0.575,-0.5732,-0.5717,-0.5712,-0.571,-0.5717,-0.576,-0.5727,-0.5727,-0.5726,-0.5726,-0.5726,0,-0.7138,-0.7065,-0.6982,-0.6861,-0.6787,-0.6738,-0.6634,-0.6574,-0.6485,-0.6386,-0.6297,-0.6174,-0.6066,-0.5949,-0.5833,-0.5784,-0.5752,-0.5757,-0.576,-0.5742,-0.574,-0.5762,-0.5785,-0.5785,-0.5785,-0.5785,-0.5785,-0.5785,-0.7136,-0.7052,-0.6993,-0.6866,-0.6791,-0.6692,-0.6636,-0.6557,-0.6477,-0.6346,-0.6258,-0.6184,-0.6075,-0.595,-0.5847,-0.5814,-0.5774,-0.5788,-0.5747,-0.5747,-0.5743,-0.5739,-0.5758,-0.5781,-0.5781,-0.5756,-0.5756,-0.5756]},{"header":{"parameterUnit":"m.s-1","parameterCategory":1,"la1":30.2991,"la2":30.254,"lo1":-89.0895,"lo2":-89.0444,"dy":0.0017,"dx":0.0017,"nx":28,"ny":28,"refTime":"2024-07-18T03:00:00:Z","depth":0,"parameterNumber":3,"parameterNumberName":"V-component_of_WINDS"},"data":[0,0,0,0,0,0,0,0,0,0,0,0,0,0,0,0,0,0,0,0,0,0,0,0,0,0,0,0,0,0,0,0,0,0,0,0,0,0,0,0,0,0,0,0,0,0,0,0,0,0,0,0,0,0,0,0,0,0,-1.2499,-1.2502,0,-1.2785,-1.2789,-1.2792,-1.2926,-1.2926,-1.2925,-1.2925,-1.3216,-1.3224,-1.3231,0,0,0,0,0,0,0,0,0,0,0,0,0,-1.2063,-1.207,-1.2499,-1.2502,-1.2506,-1.2785,-1.2789,-1.2793,-1.2926,-1.2926,-1.2925,-1.2925,-1.3213,-1.3223,-1.3232,0,0,0,0,0,0,0,0,0,0,0,0,0,-1.2291,-1.2072,-1.2498,-1.2606,-1.2618,-1.2784,-1.2789,-1.2794,-1.2926,-1.2926,-1.2925,-1.2925,-1.321,-1.3222,-1.3233,-1.3313,0,0,-1.327,-1.3275,0,0,0,0,0,0,0,0,-1.2278,-1.2307,-1.2586,-1.2599,-1.2613,-1.282,-1.2742,-1.2968,-1.2926,-1.2809,-1.2925,-1.2925,-1.3084,-1.3106,-1.3161,-1.3326,-1.3339,-1.3271,-1.3278,-1.3283,-1.3286,0,0,0,0,0,0,0,-1.2262,-1.2295,-1.2612,-1.259,-1.2607,-1.2639,-1.2671,-1.2785,-1.2945,-1.2819,-1.283,-1.2862,-1.3091,-1.3149,-1.3168,-1.3343,-1.327,-1.3281,-1.3288,-1.3293,-1.3587,-1.3587,0,0,0,0,0,0,-1.2229,-1.2281,-1.2603,-1.2621,-1.2441,-1.2647,-1.2683,-1.2754,-1.2944,-1.2973,-1.2862,-1.2867,-1.3129,-1.3154,-1.3179,-1.3285,-1.3283,-1.3294,-1.3301,-1.3586,-1.3587,-1.3587,0,0,0,0,0,0,-1.2219,-1.2256,-1.2591,-1.2454,-1.2499,-1.2655,-1.2733,-1.2759,-1.2817,-1.2976,-1.3005,-1.2892,-1.313,-1.3162,-1.3278,-1.3296,-1.3299,-1.331,-1.3585,-1.3586,-1.3587,-1.3495,0,0,0,0,0,0,-1.2206,-1.2252,-1.2285,-1.2454,-1.2506,-1.2687,-1.2734,-1.2765,-1.2838,-1.2847,-1.3012,-1.3039,-1.3132,-1.326,-1.329,-1.3313,-1.332,-1.3584,-1.3586,-1.3587,-1.3497,-1.3493,-1.3489,0,0,0,0,0,-1.219,-1.2247,-1.2286,-1.2324,-1.255,-1.2688,-1.2718,-1.2825,-1.2839,-1.2872,-1.2974,-1.3033,-1.3289,-1.3271,-1.3306,-1.3332,-1.3584,-1.3585,-1.3587,-1.3499,-1.3494,-1.3489,0,0,0,0,0,0,-1.2076,-1.2271,-1.2316,-1.243,-1.2541,-1.271,-1.2756,-1.2815,-1.2925,-1.2929,-1.3056,-1.3092,-1.3196,-1.3276,-1.3252,-1.3418,-1.3442,-1.345,-1.3363,-1.3359,-1.3355,-1.3335,-1.3329,0,0,0,0,0,-1.2064,-1.2161,-1.2326,-1.241,-1.2463,-1.2599,-1.2663,-1.2736,-1.2856,-1.2904,-1.3014,-1.3127,-1.3233,-1.33,-1.3407,-1.3508,-1.3546,-1.3544,-1.354,-1.3535,-1.3542,-1.3601,-1.3602,-1.3592,-1.3592,-1.3592,0,0,-1.2041,-1.2159,-1.2213,-1.239,-1.2485,-1.2581,-1.2638,-1.2738,-1.281,-1.2919,-1.3036,-1.3119,-1.3254,-1.3363,-1.3417,-1.3433,-1.3553,-1.3537,-1.3533,-1.3542,-1.3603,-1.3604,-1.3604,-1.3593,-1.3593,-1.3593,0,0,-1.2048,-1.2147,-1.2229,-1.2322,-1.2464,-1.2554,-1.2573,-1.2733,-1.2793,-1.2912,-1.2995,-1.3082,-1.3262,-1.3354,-1.3425,-1.3463,-1.3522,-1.3494,-1.3473,-1.3529,-1.353,-1.3532,-1.3546,-1.3549,-1.3499,-1.3499,-1.3499,0,-1.2001,-1.2151,-1.2262,-1.2357,-1.2432,-1.2535,-1.2617,-1.2702,-1.2871,-1.292,-1.2935,-1.3162,-1.326,-1.3392,-1.3401,-1.3455,-1.348,-1.3477,-1.3521,-1.3524,-1.3527,-1.3542,-1.3546,-1.3495,-1.3495,-1.3496,-1.3496,0,-1.2086,-1.2187,-1.2235,-1.2397,-1.2477,-1.2564,-1.2689,-1.2756,-1.282,-1.2908,-1.3026,-1.3147,-1.3279,-1.3315,-1.3379,-1.3456,-1.3462,-1.3497,-1.3523,-1.3521,-1.3538,-1.3544,-1.3489,-1.349,-1.3491,-1.3492,0,0,-1.2033,-1.2253,-1.2269,-1.2343,-1.2506,-1.2586,-1.2677,-1.2807,-1.2862,-1.2974,-1.3054,-1.3202,-1.3236,-1.3316,-1.339,-1.3439,-1.3462,-1.347,-1.3475,-1.3465,-1.3554,-1.3527,-1.3532,-1.3501,-1.3502,-1.3504,-1.3543,0,-1.2063,-1.2233,-1.2335,-1.2463,-1.2557,-1.2654,-1.2734,-1.2841,-1.2924,-1.3016,-1.3108,-1.3211,-1.3248,-1.3296,-1.3349,-1.3448,-1.3482,-1.3446,-1.3576,-1.3579,-1.3541,-1.3541,-1.3514,-1.3546,-1.355,-1.3551,-1.3552,0,-1.2122,-1.2232,-1.2369,-1.2521,-1.2565,-1.2634,-1.2761,-1.2847,-1.297,-1.3027,-1.3114,-1.3189,-1.3288,-1.3304,-1.3442,-1.3415,-1.3473,-1.353,-1.3533,-1.3551,-1.3567,-1.356,-1.3558,-1.3563,-1.3563,-1.3562,-1.3561,0,-1.207,-1.2253,-1.2359,-1.2418,-1.2597,-1.2644,-1.272,-1.2844,-1.2914,-1.3024,-1.3071,-1.319,-1.3255,-1.3345,-1.3449,-1.3451,-1.3576,-1.3601,-1.3626,-1.3623,-1.365,-1.3647,-1.3659,-1.3684,-1.3684,-1.3684,-1.3684,0,-1.2095,-1.2175,-1.2338,-1.2403,-1.2495,-1.261,-1.2697,-1.2782,-1.289,-1.2972,-1.3062,-1.3137,-1.3269,-1.336,-1.3442,-1.3543,-1.3571,-1.362,-1.3641,-1.3613,-1.3607,-1.3655,-1.3656,-1.3685,-1.3685,-1.3685,-1.3685,0,-1.2054,-1.2166,-1.2288,-1.2446,-1.2488,-1.2548,-1.2684,-1.275,-1.2837,-1.294,-1.297,-1.3106,-1.3218,-1.333,-1.348,-1.3535,-1.3635,-1.3662,-1.3593,-1.3605,-1.3625,-1.3622,-1.3669,-1.3681,-1.3695,-1.3695,-1.3695,0,-1.2063,-1.2128,-1.2292,-1.2354,-1.2429,-1.2527,-1.2599,-1.2714,-1.2785,-1.2929,-1.2978,-1.3096,-1.3197,-1.337,-1.3482,-1.3596,-1.3629,-1.3637,-1.3647,-1.3616,-1.363,-1.3626,-1.3633,-1.3634,-1.3633,-1.3632,-1.3632,0,-1.2068,-1.212,-1.2221,-1.2341,-1.2425,-1.2525,-1.2629,-1.2674,-1.2808,-1.2883,-1.2999,-1.3077,-1.323,-1.3346,-1.3473,-1.3551,-1.3614,-1.3627,-1.364,-1.3613,-1.3571,-1.3595,-1.3584,-1.3627,-1.3627,-1.3627,-1.3628,-1.3628,-1.2054,-1.2115,-1.224,-1.235,-1.2439,-1.2533,-1.2603,-1.2698,-1.2796,-1.293,-1.2991,-1.3106,-1.3226,-1.3404,-1.348,-1.3572,-1.3589,-1.3606,-1.3611,-1.3614,-1.3608,-1.3554,-1.3595,-1.3596,-1.3596,-1.3596,-1.3596,0,-1.2065,-1.2149,-1.2248,-1.239,-1.2475,-1.2526,-1.2642,-1.271,-1.2811,-1.2918,-1.3015,-1.3146,-1.3259,-1.3378,-1.3497,-1.3547,-1.3579,-1.3575,-1.3573,-1.359,-1.3585,-1.3564,-1.3547,-1.3547,-1.3547,-1.3547,-1.3547,-1.3547,-1.208,-1.2186,-1.2252,-1.2402,-1.2486,-1.2601,-1.2663,-1.2749,-1.2835,-1.2978,-1.3072,-1.3149,-1.3261,-1.3388,-1.3493,-1.3525,-1.3565,-1.3553,-1.3593,-1.3587,-1.359,-1.3594,-1.3574,-1.356,-1.356,-1.3591,-1.3591,-1.3591]}]]